TimeEDT,TemperatureF,Dew PointF,Humidity,Sea Level PressureIn,VisibilityMPH,Wind Direction,Wind SpeedMPH,Gust SpeedMPH,PrecipitationIn,Events,Conditions,WindDirDegrees,DateUTC
12:56 AM,44.1,42.1,93,30.04,10.0,Calm,Calm,-,N/A,,Clear,0,2013-09-25 04:56:00
1:56 AM,43.0,41.0,93,30.04,10.0,Calm,Calm,-,N/A,,Clear,0,2013-09-25 05:56:00
2:33 AM,42.8,39.2,87,30.03,1.8,Calm,Calm,-,N/A,,Clear,0,2013-09-25 06:33:00
2:49 AM,42.8,39.2,87,30.03,3.0,Calm,Calm,-,N/A,,Clear,0,2013-09-25 06:49:00
2:56 AM,42.1,39.9,92,30.04,10.0,Calm,Calm,-,N/A,,Clear,0,2013-09-25 06:56:00
3:54 AM,39.2,37.4,93,30.03,1.8,Calm,Calm,-,N/A,,Clear,0,2013-09-25 07:54:00
3:56 AM,39.9,37.9,93,30.04,1.5,Calm,Calm,-,N/A,,Clear,0,2013-09-25 07:56:00
4:02 AM,41.0,37.4,87,30.03,3.0,Calm,Calm,-,N/A,,Clear,0,2013-09-25 08:02:00
4:17 AM,39.2,37.4,93,30.02,1.8,Calm,Calm,-,N/A,,Clear,0,2013-09-25 08:17:00
4:28 AM,39.2,37.4,93,30.02,0.8,Calm,Calm,-,N/A,,Clear,0,2013-09-25 08:28:00
4:31 AM,39.2,37.4,93,30.02,1.2,Calm,Calm,-,N/A,,Partly Cloudy,0,2013-09-25 08:31:00
4:37 AM,39.2,37.4,93,30.02,0.8,Calm,Calm,-,N/A,,Mist,0,2013-09-25 08:37:00
4:56 AM,37.9,37.0,97,30.04,0.8,Calm,Calm,-,N/A,,Mist,0,2013-09-25 08:56:00
5:24 AM,37.4,35.6,93,30.02,0.2,Calm,Calm,-,N/A,Fog,Fog,0,2013-09-25 09:24:00
5:30 AM,37.4,35.6,93,30.02,1.0,Calm,Calm,-,N/A,,Mist,0,2013-09-25 09:30:00
5:32 AM,37.4,35.6,93,30.02,2.0,Calm,Calm,-,N/A,,Scattered Clouds,0,2013-09-25 09:32:00
5:39 AM,37.4,37.4,100,30.02,10.0,Calm,Calm,-,N/A,,Scattered Clouds,0,2013-09-25 09:39:00
5:53 AM,37.4,35.6,93,30.02,2.5,Calm,Calm,-,N/A,,Clear,0,2013-09-25 09:53:00
5:56 AM,37.0,36.0,96,30.04,4.0,Calm,Calm,-,N/A,,Clear,0,2013-09-25 09:56:00
6:01 AM,35.6,35.6,100,30.02,1.8,Calm,Calm,-,N/A,,Clear,0,2013-09-25 10:01:00
6:13 AM,35.6,33.8,93,30.01,3.0,Calm,Calm,-,N/A,,Clear,0,2013-09-25 10:13:00
6:19 AM,35.6,33.8,93,30.01,1.5,Calm,Calm,-,N/A,,Partly Cloudy,0,2013-09-25 10:19:00
6:23 AM,35.6,33.8,93,30.01,0.8,Calm,Calm,-,N/A,,Mist,0,2013-09-25 10:23:00
6:30 AM,35.6,33.8,93,30.01,1.2,Calm,Calm,-,N/A,,Partly Cloudy,0,2013-09-25 10:30:00
6:35 AM,35.6,33.8,93,30.01,4.0,Calm,Calm,-,N/A,,Partly Cloudy,0,2013-09-25 10:35:00
6:56 AM,37.0,35.1,93,30.04,10.0,Calm,Calm,-,N/A,,Clear,0,2013-09-25 10:56:00
7:31 AM,35.6,33.8,93,30.03,1.8,Calm,Calm,-,N/A,,Clear,0,2013-09-25 11:31:00
7:43 AM,35.6,35.6,100,30.03,0.5,Calm,Calm,-,N/A,Fog,Fog,0,2013-09-25 11:43:00
7:56 AM,37.0,36.0,96,30.06,2.5,Calm,Calm,-,N/A,,Partly Cloudy,0,2013-09-25 11:56:00
8:14 AM,37.4,37.4,100,30.03,10.0,Calm,Calm,-,N/A,,Partly Cloudy,0,2013-09-25 12:14:00
8:41 AM,39.2,37.4,93,30.03,1.8,Calm,Calm,-,N/A,,Partly Cloudy,0,2013-09-25 12:41:00
8:52 AM,41.0,39.2,93,30.03,4.0,Calm,Calm,-,N/A,,Partly Cloudy,0,2013-09-25 12:52:00
8:56 AM,42.1,39.9,92,30.05,10.0,Calm,Calm,-,N/A,,Partly Cloudy,0,2013-09-25 12:56:00
9:56 AM,52.0,45.0,77,30.05,10.0,Calm,Calm,-,N/A,,Clear,0,2013-09-25 13:56:00
10:56 AM,59.0,46.0,62,30.05,10.0,Variable,3.5,-,N/A,,Clear,0,2013-09-25 14:56:00
11:56 AM,63.0,44.1,50,30.04,10.0,NW,3.5,-,N/A,,Clear,310,2013-09-25 15:56:00
12:56 PM,64.9,43.0,45,30.03,10.0,Calm,Calm,-,N/A,,Clear,0,2013-09-25 16:56:00
1:56 PM,66.0,43.0,43,30.01,10.0,North,4.6,-,N/A,,Clear,350,2013-09-25 17:56:00
2:56 PM,66.9,41.0,39,29.99,10.0,Calm,Calm,-,N/A,,Clear,0,2013-09-25 18:56:00
3:56 PM,69.1,44.1,40,29.98,10.0,NNW,5.8,-,N/A,,Clear,330,2013-09-25 19:56:00
4:56 PM,66.9,42.1,40,29.99,10.0,Variable,3.5,-,N/A,,Clear,0,2013-09-25 20:56:00
5:56 PM,64.9,45.0,48,30.00,10.0,NNW,5.8,-,N/A,,Clear,340,2013-09-25 21:56:00
6:56 PM,57.9,44.1,60,30.01,10.0,NNW,6.9,-,N/A,,Clear,340,2013-09-25 22:56:00
7:56 PM,57.0,45.0,64,30.02,10.0,North,4.6,-,N/A,,Clear,360,2013-09-25 23:56:00
8:19 PM,57.2,44.6,63,30.00,10.0,Calm,Calm,-,N/A,,Partly Cloudy,0,2013-09-26 00:19:00
8:56 PM,54.0,45.0,72,30.03,10.0,North,3.5,-,N/A,,Clear,10,2013-09-26 00:56:00
9:56 PM,53.1,45.0,74,30.02,10.0,NNE,3.5,-,N/A,,Clear,20,2013-09-26 01:56:00
10:56 PM,48.9,45.0,86,30.03,10.0,Calm,Calm,-,N/A,,Clear,0,2013-09-26 02:56:00
11:56 PM,48.0,45.0,89,30.04,10.0,Calm,Calm,-,N/A,,Clear,0,2013-09-26 03:56:00